{"data":{"norad_id":66649,"intl_designator":"2025-273C","name":"COSMOS 2599 (RODNIK-S *)","alt_names":[],"object_type":"PAYLOAD","status":"ACTIVE","operator":null,"country":"CIS","launch_date":"2025-11-25","launch_site_code":"PLMSC","launch_vehicle":null,"mission":null,"orbit_class":"UNKNOWN","rcs_meters":null,"size_class":null,"mass_kg":null,"dimensions":null,"purposes":[],"wikipedia_slug":null,"has_3d_model":false,"image_url":null,"decayed_at":null,"tle_current":{"epoch":"2026-09-20T13:47:58.171776Z","epoch_age_seconds":114529,"freshness":"FRESH","line1":"1 66649U 25273C   26263.57497884  .00000042  00000+0  23380-3 0  9995","line2":"2 66649  82.4993 111.3561 0016276 358.8386   1.2654 12.42899368 37144","mean_motion":12.42899368,"eccentricity":0.0016276,"inclination_deg":82.4993,"raan_deg":111.3561,"arg_perigee_deg":358.8386,"mean_anomaly_deg":1.2654,"bstar":0.0002338,"rev_number":3714,"period_min":115.85813277202,"perigee_km":1481.523065353,"apogee_km":1507.1495404486,"semimajor_km":7872.4733029008,"source":"CELESTRAK","updated_at":"2026-09-21T09:00:16.114533Z"}}}